Lid_Strength_Index
1 1 1 1 1 1 1 1 0 0 0 0 0 0 0 1 1 0 1 1 1 1
1 1 1 1 1 1 1 1 1 0 0 0 0 0 0 1 1 0 0 1 1 1
1 1 1 1 2 1 1 0 1 1 1 1 0 0 0 1 0 1 1 1 1 1
1 1 1 2 1 1 1 0 0 1 0 1 0 0 0 0 0 1 1 1 1 1
1 0 1 1 1 1 0 0 0 0 0 0 0 0 0 1 1 1 1 1 1 1
1 1 1 0 0 0 0 0 0 0 0 0 0 0 0 0 1 1 1 1 1 1
1 1 1 1 0 0 0 0 0 0 0 0 0 0 0 0 0 1 1 -0 -0 -0
1 0 0 1 0 0 1 0 0 0 0 0 0 0 0 0 -0 0 -0 -0 -0 -1
1 1 1 0 1 1 1 0 1 1 1 0 1 5 4 1 0 -0 0 0 -0 -1
1 1 1 1 1 1 1 1 1 1 1 1 0 6 6 3 -0 0 -0 -0 -0 0
1 1 1 2 2 1 1 1 1 1 0 1 1 7 6 4 -0 0 -0 -1 -0 -0
2 2 1 2 2 1 1 1 1 1 1 1 1 8 7 3 0 0 0 -0 -0 -0
4 2 3 1 2 2 1 1 1 1 1 2 1 9 8 3 0 1 1 0 -0 4
5 4 3 3 1 1 2 2 1 2 1 1 1 4 9 7 0 1 1 1 1 0